カタログに戻る

ONEWEB-0042

運用中通信PO
NORAD 45441·PAYLOAD·🇬🇧 United Kingdom

打ち上げ Mar 21, 2020 から Baikonur Cosmodrome

Loading…

次のパス (今後24時間)

TLE

最新Source: CelesTrak SupGP

元期: Sep 14, 2026, 15:24 UTC

1 45441C 20020T   26257.64218009  .00002253  00000+0  63643-2 0  2576
2 45441  87.8966   3.2782 0001922 105.5187   4.2627 13.11409526    11

AllMySatでONEWEB-0042をリアルタイム追跡

Download on the App Store